CW9849 Weather Reports


Display with metric or nautical units.
time (UTC)temp
F
wind
direction
speed
MPH
gust
MPH
rain 1hr
in
rain 24hr
in
rain mn
in
humidity
%
barometer
mb
20260906100038 70 151 11.0 17.0 0.00 0.00 0.00 73 1018.9
20260906094537 71 139 10.0 15.0 0.00 0.00 0.00 74 1019.0
20260906093038 70 157 11.0 17.0 0.00 0.00 0.00 75 1018.9
20260906091529 70 146 9.0 17.0 0.00 0.00 0.00 76 1019.1
20260906090041 68 140 10.0 17.0 0.00 0.00 0.00 77 1019.2
20260906084526 68 157 9.0 16.0 0.00 0.00 0.00 77 1019.3
20260906083029 69 137 10.0 17.0 0.00 0.00 0.00 76 1019.3
20260906081519 69 151 9.0 15.0 0.00 0.00 0.00 76 1019.5
20260906080014 68 146 10.0 17.0 0.00 0.00 0.00 78 1019.6
20260906074510 67 148 10.0 18.0 0.00 0.00 0.00 80 1019.8
20260906073006 66 155 10.0 15.0 0.00 0.00 0.00 81 1019.8
20260906071601 64 161 9.0 16.0 0.00 0.00 0.00 84 1020.1
20260906070058 64 153 8.0 17.0 0.00 0.00 0.00 85 1019.9
20260906064556 63 160 9.0 19.0 0.00 0.00 0.00 85 1019.8
20260906063054 63 98 10.0 21.0 0.00 0.00 0.00 85 1019.6
20260906061653 63 136 12.0 22.0 0.00 0.00 0.00 85 1019.5
20260906060047 63 149 13.0 23.0 0.00 0.00 0.00 85 1019.6
20260906054546 63 158 13.0 21.0 0.00 0.00 0.00 84 1019.5
20260906053044 63 152 8.0 19.0 0.00 0.00 0.00 83 1019.6
20260906051555 63 135 11.0 18.0 0.00 0.00 0.00 82 1019.7
20260906050046 63 120 8.0 15.0 0.00 0.00 0.00 83 1019.7
20260906044547 63 129 7.0 18.0 0.00 0.00 0.00 83 1019.6
20260906043050 63 120 9.0 16.0 0.00 0.00 0.00 83 1019.7
20260906041539 63 153 8.0 18.0 0.00 0.00 0.00 84 1019.9
20260906040039 63 96 9.0 17.0 0.00 0.00 0.00 84 1019.9
20260906034539 62 98 9.0 17.0 0.00 0.00 0.00 84 1020.4
20260906033033 62 115 8.0 17.0 0.00 0.00 0.00 84 1020.4
20260906031538 62 112 9.0 19.0 0.00 0.00 0.00 84 1020.7
20260906030029 62 102 8.0 16.0 0.00 0.00 0.00 85 1021.0
20260906024527 62 105 8.0 20.0 0.00 0.00 0.00 84 1021.2
20260906023024 62 139 8.0 19.0 0.00 0.00 0.00 84 1021.7
20260906021523 62 136 10.0 23.0 0.00 0.00 0.00 83 1022.2
20260906020022 62 146 10.0 18.0 0.00 0.00 0.00 83 1022.6
20260906014526 62 140 10.0 19.0 0.00 0.00 0.00 83 1022.9
20260906013017 62 156 10.0 17.0 0.00 0.00 0.00 82 1023.1
20260906011513 62 143 10.0 17.0 0.00 0.00 0.00 82 1023.4
20260906010011 62 133 10.0 16.0 0.00 0.00 0.00 83 1023.5
20260906004507 62 136 9.0 16.0 0.00 0.00 0.00 84 1023.7
20260906003004 62 171 8.0 14.0 0.00 0.00 0.00 83 1024.0
20260906001501 62 168 8.0 16.0 0.00 0.00 0.00 83 1024.3
20260905234620 62 156 8.0 17.0 0.00 0.00 0.00 81 1024.6
20260905233056 62 160 9.0 14.0 0.00 0.00 0.00 81 1024.7
20260905231555 63 173 8.0 18.0 0.00 0.00 0.00 81 1024.6
20260905224552 62 161 10.0 16.0 0.00 0.00 0.00 82 1025.0
20260905223053 62 158 8.0 16.0 0.00 0.00 0.00 83 1024.8
20260905221554 62 147 9.0 17.0 0.00 0.00 0.00 82 1024.8
20260905220101 63 158 8.0 14.0 0.00 0.00 0.00 83 1024.7
20260905214549 63 142 6.0 14.0 0.00 0.00 0.00 83 1024.6
20260905213048 63 146 9.0 15.0 0.00 0.00 0.00 83 1024.8
20260905211547 63 152 8.0 13.0 0.00 0.00 0.00 84 1024.9
20260905210057 63 138 9.0 14.0 0.00 0.00 0.00 84 1025.1
20260905204553 63 160 7.0 12.0 0.00 0.00 0.00 84 1025.1
20260905203102 63 139 7.0 13.0 0.00 0.00 0.00 84 1025.2
20260905201545 63 131 8.0 12.0 0.00 0.00 0.00 84 1025.2
20260905200045 63 159 8.0 13.0 0.00 0.00 0.00 84 1025.1
20260905194546 63 193 7.0 12.0 0.00 0.00 0.00 84 1025.2
20260905193044 63 146 7.0 11.0 0.00 0.00 0.00 84 1025.2
20260905191543 63 174 8.0 12.0 0.00 0.00 0.00 83 1025.2
20260905190044 64 144 7.0 12.0 0.00 0.00 0.00 82 1025.4
20260905184546 64 146 5.0 10.0 0.00 0.00 0.00 81 1025.3
20260905183041 64 162 6.0 12.0 0.00 0.00 0.00 79 1025.1
20260905181540 64 154 6.0 12.0 0.00 0.00 0.00 78 1025.3
20260905180042 65 166 6.0 11.0 0.00 0.00 0.00 78 1025.4
20260905174539 65 144 6.0 11.0 0.00 0.00 0.00 77 1025.2
20260905173039 65 163 6.0 11.0 0.00 0.00 0.00 77 1025.2
20260905171548 66 156 6.0 12.0 0.00 0.00 0.00 75 1025.4
20260905170036 66 155 8.0 13.0 0.00 0.00 0.00 74 1025.3
20260905164543 67 164 7.0 14.0 0.00 0.00 0.00 72 1025.3
20260905163037 67 176 7.0 14.0 0.00 0.00 0.00 71 1025.6
20260905161534 68 153 8.0 12.0 0.00 0.00 0.00 69 1025.6
20260905160032 68 144 6.0 9.0 0.00 0.00 0.00 68 1025.6
20260905154534 68 146 5.0 10.0 0.00 0.00 0.00 67 1025.5
20260905153032 70 143 7.0 12.0 0.00 0.00 0.00 63 1025.8
20260905151529 71 172 8.0 13.0 0.00 0.00 0.00 62 1025.9
20260905150038 70 138 9.0 13.0 0.00 0.00 0.00 63 1026.1
20260905144533 70 176 9.0 13.0 0.00 0.00 0.00 64 1026.2
20260905143026 71 131 9.0 15.0 0.00 0.00 0.00 63 1026.3
20260905141524 71 156 8.0 13.0 0.00 0.00 0.00 63 1026.3
20260905140023 71 157 9.0 15.0 0.00 0.00 0.00 62 1026.5
20260905134525 71 158 9.0 14.0 0.00 0.00 0.00 61 1026.8
20260905133022 71 160 10.0 14.0 0.00 0.00 0.00 60 1027.0
20260905131532 71 148 10.0 14.0 0.00 0.00 0.00 59 1026.9
20260905130019 72 136 9.0 14.0 0.00 0.00 0.00 58 1027.0
20260905124519 72 147 8.0 12.0 0.00 0.00 0.00 57 1026.8
20260905123019 71 141 7.0 12.0 0.00 0.00 0.00 59 1026.9
20260905121516 71 136 8.0 13.0 0.00 0.00 0.00 58 1026.8
20260905120022 71 130 9.0 14.0 0.00 0.00 0.00 59 1026.9
20260905114518 71 151 9.0 13.0 0.00 0.00 0.00 59 1027.0
20260905113013 72 199 6.0 11.0 0.00 0.00 0.00 58 1027.0
20260905111518 73 156 6.0 11.0 0.00 0.00 0.00 58 1027.0
20260905110011 72 148 6.0 10.0 0.00 0.00 0.00 57 1026.9
20260905104517 72 150 6.0 10.0 0.00 0.00 0.00 57 1026.9
20260905103013 73 161 6.0 9.0 0.00 0.00 0.00 55 1026.9